User: anonymous   Login
Location: Unspecified
(0.0000°N, 0.0000°E)
Time: 04:06:01
(UTC+02:00)
Language:

Ariane H10 - Orbit

View from above orbital plane
View from above orbital plane
View from above satellite
View from above satellite

Ground track
Ground track

The orbit data is extracted from the following two-line orbital elements,

1 19622U 88098B   17147.26667049 +.00011421 +00000-0 +12004-2 0  9991
2 19622 003.6297 166.2503 6396656 245.6661 037.1580 03.49084166303655
Epoch (UTC): 27 May 2017 06:24:00
Eccentricity: 0.6396656
inclination: 3.6297°
perigee height: 236 km
apogee height: 23719 km
right ascension of ascending node: 166.2503°
argument of perigee: 245.6661°
revolutions per day: 3.49084166
mean anomaly at epoch: 37.1580°
orbit number at epoch: 30365

The dashed part of the orbit path shows where the satellite is in the earth's shadow,  

DLR